Date,TemperatureHighF,TemperatureAvgF,TemperatureLowF,DewpointHighF,DewpointAvgF,DewpointLowF,HumidityHigh,HumidityAvg,HumidityLow,PressureMaxIn,PressureMinIn,WindSpeedMaxMPH,WindSpeedAvgMPH,GustSpeedMaxMPH,PrecipitationSumIn
2013-4-1,68.4,49.8,36.5,47.0,36.4,-2.9,100,66,18,29.79,29.48,24,6,24,0.25
2013-4-2,45.0,36.5,29.7,15.8,4.1,-5.1,44,26,15,29.95,29.79,21,8,21,0.00
2013-4-3,49.1,38.8,31.5,16.2,5.4,-2.9,52,26,14,30.16,29.93,23,9,23,0.06
2013-4-4,61.5,43.9,29.8,27.5,11.3,0.3,62,30,10,30.30,30.06,15,5,15,0.00
2013-4-5,64.6,49.0,38.3,30.7,22.0,6.2,72,41,11,30.06,29.61,20,5,20,0.00
2013-4-6,50.9,40.4,31.1,24.8,5.1,-6.3,52,25,13,30.34,29.88,17,6,17,0.00
2013-4-7,58.3,44.0,27.7,42.2,25.5,4.1,84,53,13,30.34,30.00,21,5,21,0.00
2013-4-8,47.5,46.6,45.1,45.8,43.8,42.0,97,90,84,30.00,29.94,8,3,8,0.00
2013-4-9,76.8,57.1,47.8,52.9,44.1,37.3,93,65,26,30.09,29.85,16,4,16,0.02
2013-4-10,64.8,52.4,45.7,49.3,44.8,42.2,97,77,45,30.03,29.85,11,3,11,0.18
2013-4-11,55.4,47.5,43.0,47.5,42.3,38.4,100,83,54,30.14,29.81,11,4,11,0.09
2013-4-12,43.0,40.3,38.3,40.8,36.9,29.9,100,88,64,30.17,29.76,21,7,21,0.53
2013-4-13,56.8,44.3,36.9,41.2,37.5,34.8,100,79,47,29.93,29.73,17,4,17,0.02
2013-4-14,55.9,47.4,38.5,41.6,30.4,16.8,94,56,23,30.21,29.91,14,4,14,0.00
2013-4-15,56.7,46.1,31.1,38.2,32.1,24.7,84,59,39,30.40,30.21,13,3,13,0.00
2013-4-16,68.2,53.6,37.8,50.4,40.4,33.5,93,65,34,30.42,30.05,20,5,20,0.00
2013-4-17,72.9,60.1,45.3,53.0,34.0,9.7,83,46,10,30.34,30.05,13,4,13,0.00
2013-4-18,70.3,54.5,37.6,45.0,30.1,11.6,97,48,11,30.43,30.15,18,4,18,0.00
2013-4-19,80.1,64.9,53.1,64.3,58.4,44.3,100,81,49,30.16,29.66,21,6,21,0.01
2013-4-20,65.7,56.6,46.4,64.2,39.6,20.3,100,60,24,30.22,29.60,16,6,17,0.47
2013-4-21,57.6,45.3,35.6,28.3,17.5,7.1,68,35,15,30.69,30.21,17,5,17,0.00
2013-4-22,53.8,43.7,31.8,37.3,30.7,20.7,91,62,29,30.77,30.40,18,6,18,0.00
2013-4-23,43.9,42.5,41.4,43.3,40.4,32.1,100,93,68,30.60,30.10,16,7,16,0.18
2013-4-24,80.4,56.4,43.0,51.7,45.2,37.4,100,73,22,30.11,29.79,19,5,19,0.01
2013-4-25,71.2,57.6,44.1,54.0,33.2,6.7,97,52,10,30.26,29.83,15,4,15,0.05
2013-4-26,57.6,49.7,41.0,43.7,38.9,31.3,96,68,46,30.43,30.26,14,4,14,0.00
2013-4-27,69.4,52.7,35.6,48.9,33.1,14.3,100,57,16,30.42,30.30,11,3,11,0.00
2013-4-28,75.2,56.5,37.6,44.2,32.3,16.3,92,46,12,30.35,30.21,13,3,13,0.00
2013-4-29,77.0,59.9,46.2,48.3,31.9,5.3,92,45,10,30.29,30.19,12,2,12,0.00
2013-4-30,71.6,57.1,42.1,45.3,24.5,8.6,83,37,10,30.38,30.26,11,2,11,0.00